This is the latest recevied weather packets stored in our database for station/object OK2ILA-1. If no packets are shown the sender has not sent any weather packets the latest 1 day(s).
| Time | Temp. | Humidity | Pressure | Rain* | Wind** | Luminosity | Snow |
|---|---|---|---|---|---|---|---|
| 1778046717 | 16.11° C | 100% | 1008.2 hPa | 0 mm | - | - | - |
| 1778045276 | 15.56° C | 100% | 1008 hPa | 0 mm | - | - | - |
| 1778044555 | 15° C | 100% | 1007.8 hPa | 0 mm | - | - | - |
| 1778033745 | 14.44° C | 100% | 1007.2 hPa | 0 mm | - | - | - |
| 1778033024 | 14.44° C | 100% | 1007.3 hPa | 0 mm | - | - | - |
| 1778032303 | 14.44° C | 100% | 1007.3 hPa | 0 mm | - | - | - |
| 1778031583 | 14.44° C | 100% | 1007.3 hPa | 0 mm | - | - | - |
| 1778030862 | 15° C | 100% | 1007.4 hPa | 0 mm | - | - | - |
| 1778029421 | 15° C | 100% | 1007.3 hPa | 0 mm | - | - | - |
| 1778028700 | 15° C | 100% | 1007.3 hPa | 0 mm | - | - | - |
| 1778027259 | 15° C | 100% | 1007 hPa | 0 mm | - | - | - |
| 1778026538 | 15.56° C | 100% | 1007.2 hPa | 0 mm | - | - | - |
| 1778025097 | 15.56° C | 100% | 1007.3 hPa | 0 mm | - | - | - |
| 1778022935 | 16.11° C | 100% | 1007.6 hPa | 0 mm | - | - | - |
| 1778020052 | 16.67° C | 100% | 1007.7 hPa | 0 mm | - | - | - |
| 1778017890 | 17.22° C | 100% | 1007.8 hPa | 0 mm | - | - | - |
| 1778015728 | 17.78° C | 100% | 1007.8 hPa | 0 mm | - | - | - |
| 1778013566 | 18.33° C | 100% | 1007.8 hPa | 0 mm | - | - | - |
| 1778011404 | 18.89° C | 100% | 1007.9 hPa | 0 mm | - | - | - |
| 1778009242 | 20° C | 100% | 1007.8 hPa | 0 mm | - | - | - |
| 1778008521 | 20° C | 100% | 1007.8 hPa | 0 mm | - | - | - |
* Rain latest hour (hover to see other rain measurements)
** Current wind speed in m/s (hover to see current wind gust speed)